Location: Castifao
(42.5040°N, 9.1124°E)
Time: 18:16:36
(UTC+00:00)

SL-16 R/B - Pass Details

Date: 23 January 2020
Orbit: 842 x 848 km, 71.0° (Epoch: 26 February)

Event Time Altitude Azimuth Distance (km) Brightness Sun altitude
Rises 17:36:26 0° 339° (NNW) 3,417 5.4 -13.2°
Reaches altitude 10° 17:38:59 10° 345° (NNW) 2,477 4.6 -13.7°
Maximum altitude 17:44:29 49° 60° (ENE) 1,087 2.4 -14.6°
Drops below altitude 10° 17:49:56 10° 135° (SE) 2,458 4.3 -15.6°
Sets 17:52:27 0° 141° (SE) 3,388 5.1 -16.1°
